Погода в Дробышево

Украина / Донецкая область     49˚02′30″N   37˚43′26″E
темп.,
°C
ветер,
м/с
пор.,
м/с
влажн.,
%
обл.,
%
осадки,
мм/ч
давл.,
гПа
погр.,
м
6 декабря, вс
вс623:00−4˚в611450 0.0 1038437
02:00−5˚в611490 0.0 1038425
05:00−6˚в611540 0.0 1038428
08:00−6˚в612650 0.0 1038462
11:00−4˚в712570 0.0 1038550
14:00−4˚в711520 0.0 1037652
17:00−5˚в612630 0.0 1038626
20:00−6˚в712670 0.0 1038623
7 декабря, пн
пн723:00−7˚в613640 0.0 1038551
02:00−7˚в612640 0.0 1038525
05:00−8˚в713630 0.0 1037524
08:00−7˚в714570 0.0 1037541
11:00−5˚в813470 0.0 1036593
14:00−3˚в813430 0.0 1035634
17:00−5˚в714550 0.0 1035551
20:00−6˚в713620 0.0 1035522
8 декабря, вт
вт823:00−7˚в613610 0.0 1035496
02:00−7˚в613610 0.0 1034490
05:00−7˚в714600 0.0 1033469
08:00−7˚в713560 0.0 1033503
11:00−4˚в713430 0.0 1032575
14:00−3˚в713400 0.0 1031582
17:00−4˚в714480 0.0 1031517
20:00−5˚в714530 0.0 1032477
9 декабря, ср
ср923:00−5˚в613520 0.0 1032471
02:00−6˚в6135424 0.0 1032449
05:00−6˚в612562 0.0 1032432
08:00−6˚в713581 0.0 1032439
11:00−4˚в711530 0.0 1032467
14:00−2˚в611510 0.0 1031510
17:00−3˚в612567 0.0 1032434
20:00−4˚вюв613648 0.0 1032448
10 декабря, чт
чт1023:00−4˚вюв6116656 0.0 1033403
02:00−5˚в5117244 0.0 1033355
05:00−5˚в510781 0.0 1033349
08:00−5˚в611791 0.0 1033349
11:00−2˚в610630 0.0 1033402
14:00−1˚в610560 0.0 1032436
17:00−3˚в512590 0.0 1033401
20:00−4˚в612670 0.0 1032411